Weather History for Mullan Pass, ID

Change the Weather History Date:

Sunday, November 25, 2012

  Actual Average (K3TH) Record (K3TH)
Temperature  
Mean Temperature 20 °F -  
Max Temperature 24 °F 37 °F 39 °F (1998)
Min Temperature 17 °F 29 °F 28 °F (1996)
Degree Days  
Heating Degree Days 44    
Moisture  
Dew Point 19 °F    
Average Humidity 94    
Maximum Humidity 100    
Minimum Humidity 86    
Precipitation  
Precipitation 0.00 in - - ()
Sea Level Pressure  
Sea Level Pressure 30.08 in    
Wind  
Wind Speed 4 mph (WNW)    
Max Wind Speed 8 mph    
Max Gust Speed -    
Visibility 6 miles    
Events Fog , Snow    
Averages and records for this station are not official NWS values.
T = Trace of Precipitation, MM = Missing Value Source: NWS Daily Summary

Daily Weather History Graph

Daily Weather History Graph

Search for Another Location

Airport:

Trip Planner

Search our weather history database for the weather conditions in past years. The results will help you decide how hot, cold, wet, or windy it might be!

Date:

Astronomy

Nov. 25, 2012 Rise Set
Actual Time 7:02 AM PST 3:57 PM PST
Civil Twilight 6:27 AM PST 4:31 PM PST
Nautical Twilight 5:49 AM PST 5:09 PM PST
Astronomical Twilight 5:12 AM PST 5:46 PM PST
Moon 2:22 PM PST (11/25) 4:12 AM PST (11/25)
Length of Visible Light 10h 03m
Length of Day
8h 54m
Waxing Gibbous, 93% of the Moon is Illuminated
Nov 25
Waxing Gibbous
Nov 28
Full
Dec 6
Last Quarter
Dec 13
New
Dec 19
First Quarter

Hourly Weather History & Observations

Time (PST) Temp. Windchill Dew Point Humidity Pressure Visibility Wind Dir Wind Speed Gust Speed Precip Events Conditions
12:02 AM 21.2 °F 14.9 °F 21.2 °F 100% 29.96 in 2.5 mi Variable 4.6 mph - N/A   Scattered Clouds
12:04 AM 21.2 °F 14.9 °F 21.2 °F 100% 29.96 in 1.2 mi Variable 4.6 mph - N/A   Scattered Clouds
12:06 AM 21.2 °F 14.9 °F 21.2 °F 100% 29.95 in 0.8 mi WNW 4.6 mph - N/A   Mostly Cloudy
12:13 AM 21.2 °F 14.9 °F 21.2 °F 100% 29.96 in 0.5 mi Variable 4.6 mph - N/A Fog Light Freezing Fog
12:22 AM 23.0 °F - 21.2 °F 93% 29.96 in 0.2 mi Calm Calm - N/A Fog Light Freezing Fog
12:44 AM 23.0 °F 15.8 °F 23.0 °F 100% 29.95 in 0.5 mi Variable 5.8 mph - N/A Fog Light Freezing Fog
12:53 AM 23.0 °F 18.4 °F 21.9 °F 96% 30.07 in 0.8 mi Variable 3.5 mph - N/A   Overcast
1:03 AM 21.2 °F 14.9 °F 21.2 °F 100% 29.96 in 1.8 mi NNW 4.6 mph - N/A   Overcast
1:09 AM 23.0 °F 15.8 °F 21.2 °F 93% 29.96 in 0.8 mi NW 5.8 mph - N/A   Overcast
1:53 AM 23.0 °F 14.7 °F 21.9 °F 96% 30.08 in 0.5 mi Variable 6.9 mph - N/A Fog Light Freezing Fog
2:14 AM 21.2 °F 13.6 °F 21.2 °F 100% 29.96 in 1.2 mi NW 5.8 mph - 0.00 in Snow Light Snow
2:22 AM 21.2 °F 16.4 °F 21.2 °F 100% 29.96 in 0.8 mi Variable 3.5 mph - 0.00 in   Mist
2:27 AM 21.2 °F 16.4 °F 21.2 °F 100% 29.96 in 1.0 mi Variable 3.5 mph - 0.00 in   Mist
2:39 AM 21.2 °F - 21.2 °F 100% 29.96 in 0.8 mi Calm Calm - 0.00 in Snow Light Snow
2:53 AM 21.0 °F - 19.9 °F 96% 30.09 in 2.5 mi Calm Calm - 0.00 in   Overcast
2:56 AM 21.2 °F - 19.4 °F 93% 29.96 in 9.0 mi Calm Calm - N/A   Overcast
3:12 AM 21.2 °F 16.4 °F 19.4 °F 93% 29.96 in 1.5 mi Variable 3.5 mph - N/A   Mostly Cloudy
3:21 AM 19.4 °F 12.8 °F 19.4 °F 100% 29.95 in 1.5 mi Variable 4.6 mph - N/A   Mostly Cloudy
3:23 AM 19.4 °F 14.3 °F 17.6 °F 93% 29.96 in 3.0 mi Variable 3.5 mph - N/A   Mostly Cloudy
3:37 AM 21.2 °F 14.9 °F 19.4 °F 93% 29.96 in 2.5 mi NW 4.6 mph - N/A   Mostly Cloudy
3:40 AM 21.2 °F 16.4 °F 19.4 °F 93% 29.96 in 2.5 mi NW 3.5 mph - N/A   Mostly Cloudy
3:50 AM 21.2 °F 16.4 °F 19.4 °F 93% 29.96 in 1.8 mi Variable 3.5 mph - N/A   Overcast
3:53 AM 21.0 °F 12.4 °F 19.9 °F 96% 30.09 in 1.5 mi Variable 6.9 mph - N/A   Overcast
4:01 AM 21.2 °F 12.6 °F 19.4 °F 93% 29.97 in 1.0 mi NW 6.9 mph - N/A   Overcast
4:21 AM 21.2 °F 14.9 °F 19.4 °F 93% 29.97 in 0.8 mi Variable 4.6 mph - 0.00 in Snow Light Snow
4:39 AM 21.2 °F 16.4 °F 19.4 °F 93% 29.97 in 1.5 mi Variable 3.5 mph - 0.00 in   Overcast
4:46 AM 21.2 °F 13.6 °F 19.4 °F 93% 29.97 in 3.0 mi NW 5.8 mph - 0.00 in   Overcast
4:53 AM 19.9 °F 14.9 °F 19.0 °F 96% 30.12 in 10.0 mi Variable 3.5 mph - 0.00 in   Overcast
5:00 AM 19.4 °F 14.3 °F 19.4 °F 100% 29.97 in 10.0 mi Variable 3.5 mph - N/A   Overcast
5:35 AM 19.4 °F - 19.4 °F 100% 29.98 in 10.0 mi Calm Calm - N/A   Overcast
5:53 AM 19.9 °F 14.9 °F 18.0 °F 92% 30.12 in 10.0 mi WSW 3.5 mph - N/A   Overcast
6:01 AM 19.4 °F 12.8 °F 19.4 °F 100% 29.97 in 10.0 mi SSW 4.6 mph - N/A   Overcast
6:27 AM 21.2 °F 16.4 °F 19.4 °F 93% 29.99 in 9.0 mi Variable 3.5 mph - N/A   Overcast
6:53 AM 21.0 °F - 19.0 °F 92% 30.13 in 10.0 mi Calm Calm - N/A   Overcast
7:12 AM 21.2 °F 14.9 °F 19.4 °F 93% 30.00 in 1.8 mi Variable 4.6 mph - 0.00 in Snow Light Snow
7:19 AM 21.2 °F - 19.4 °F 93% 30.00 in 0.8 mi Calm Calm - 0.00 in Snow Light Snow
7:34 AM 21.2 °F 14.9 °F 19.4 °F 93% 30.01 in 2.0 mi Variable 4.6 mph - 0.00 in Snow Light Snow
7:41 AM 21.2 °F - 19.4 °F 93% 30.01 in 4.0 mi Calm Calm - 0.00 in Snow Light Snow
7:53 AM 21.0 °F 16.2 °F 19.0 °F 92% 30.15 in 5.0 mi Variable 3.5 mph - 0.00 in Snow Light Snow
8:50 AM 21.2 °F 14.9 °F 19.4 °F 93% 30.03 in 3.0 mi Variable 4.6 mph - 0.00 in Snow Light Snow
8:53 AM 21.9 °F 17.2 °F 19.9 °F 92% 30.17 in 3.0 mi Variable 3.5 mph - 0.00 in Snow Light Snow
8:58 AM 21.2 °F 14.9 °F 19.4 °F 93% 30.03 in 2.0 mi NW 4.6 mph - 0.00 in Snow Light Snow
9:03 AM 21.2 °F 16.4 °F 19.4 °F 93% 30.03 in 1.0 mi Variable 3.5 mph - 0.00 in Snow Light Snow
9:11 AM 21.2 °F 13.6 °F 19.4 °F 93% 30.04 in 0.5 mi Variable 5.8 mph - 0.00 in Fog , Snow Light Snow
9:15 AM 21.2 °F 13.6 °F 19.4 °F 93% 30.03 in 1.5 mi Variable 5.8 mph - 0.00 in Snow Light Snow
9:22 AM 21.2 °F 14.9 °F 19.4 °F 93% 30.04 in 2.0 mi NW 4.6 mph - 0.00 in Snow Light Snow
9:29 AM 21.2 °F 16.4 °F 19.4 °F 93% 30.04 in 1.5 mi Variable 3.5 mph - 0.00 in Snow Light Snow
9:53 AM 23.0 °F 17.0 °F 19.9 °F 88% 30.19 in 7.0 mi Variable 4.6 mph - 0.00 in   Overcast
10:18 AM 23.0 °F 14.7 °F 19.4 °F 86% 30.05 in 10.0 mi NW 6.9 mph - N/A   Overcast
10:46 AM 23.0 °F 15.8 °F 19.4 °F 86% 30.04 in 10.0 mi Variable 5.8 mph - N/A   Mostly Cloudy
10:53 AM 24.1 °F 18.2 °F 21.0 °F 88% 30.18 in 10.0 mi Variable 4.6 mph - N/A   Overcast
11:00 AM 23.0 °F 17.0 °F 21.2 °F 93% 30.04 in 10.0 mi Variable 4.6 mph - N/A   Overcast
11:07 AM 21.2 °F 13.6 °F 19.4 °F 93% 30.05 in 10.0 mi Variable 5.8 mph - N/A   Overcast
11:15 AM 21.2 °F 14.9 °F 19.4 °F 93% 30.05 in 10.0 mi Variable 4.6 mph - N/A   Overcast
11:30 AM 21.2 °F 13.6 °F 19.4 °F 93% 30.04 in 10.0 mi NW 5.8 mph - N/A   Mostly Cloudy
11:53 AM 21.9 °F 17.2 °F 19.9 °F 92% 30.21 in 10.0 mi Variable 3.5 mph - N/A   Overcast
12:01 PM 21.2 °F 12.6 °F 19.4 °F 93% 30.05 in 10.0 mi Variable 6.9 mph - N/A   Overcast
12:45 PM 21.2 °F 16.4 °F 19.4 °F 93% 30.06 in 10.0 mi Variable 3.5 mph - N/A   Overcast
12:53 PM 21.9 °F 15.7 °F 21.0 °F 96% 30.21 in 10.0 mi Variable 4.6 mph - N/A   Overcast
1:53 PM 21.9 °F 14.5 °F 19.9 °F 92% 30.22 in 10.0 mi Variable 5.8 mph - N/A   Overcast
2:31 PM 21.2 °F 14.9 °F 19.4 °F 93% 30.08 in 9.0 mi NW 4.6 mph - N/A   Overcast
2:53 PM 21.9 °F 17.2 °F 19.9 °F 92% 30.25 in 10.0 mi Variable 3.5 mph - N/A   Overcast
3:40 PM 21.2 °F 11.7 °F 19.4 °F 93% 30.10 in 10.0 mi NW 8.1 mph - 0.00 in   Overcast
3:53 PM 19.9 °F 12.1 °F 19.0 °F 96% 30.27 in 10.0 mi Variable 5.8 mph - 0.00 in   Mostly Cloudy
3:56 PM 19.4 °F 12.8 °F 19.4 °F 100% 30.10 in 10.0 mi NW 4.6 mph - N/A   Mostly Cloudy
4:23 PM 19.4 °F 10.4 °F 17.6 °F 93% 30.11 in 10.0 mi NW 6.9 mph - N/A   Mostly Cloudy
4:53 PM 19.0 °F - 18.0 °F 96% 30.30 in 10.0 mi Calm Calm - N/A   Overcast
5:44 PM 19.4 °F - 17.6 °F 93% 30.13 in 10.0 mi Calm Calm - N/A   Overcast
5:53 PM 19.9 °F - 18.0 °F 92% 30.31 in 10.0 mi Calm Calm - N/A   Overcast
6:22 PM 19.4 °F - 17.6 °F 93% 30.13 in 10.0 mi Calm Calm - N/A   Overcast
6:53 PM 19.0 °F - 18.0 °F 96% 30.32 in 10.0 mi Calm Calm - N/A   Overcast
7:31 PM 19.4 °F - 17.6 °F 93% 30.14 in 10.0 mi Calm Calm - N/A   Overcast
7:53 PM 19.0 °F - 17.1 °F 92% 30.33 in 10.0 mi Calm Calm - N/A   Overcast
8:53 PM 19.0 °F - 18.0 °F 96% 30.32 in 10.0 mi Calm Calm - N/A   Overcast
9:11 PM 17.6 °F - 15.8 °F 93% 30.15 in 10.0 mi Calm Calm - N/A   Mostly Cloudy
9:30 PM 17.6 °F 12.3 °F 15.8 °F 93% 30.15 in 10.0 mi WSW 3.5 mph - N/A   Scattered Clouds
9:53 PM 18.0 °F 12.7 °F 15.1 °F 88% 30.32 in 10.0 mi WSW 3.5 mph - N/A   Partly Cloudy
10:53 PM 18.0 °F 9.8 °F 16.0 °F 92% 30.33 in 10.0 mi South 5.8 mph - N/A   Mostly Cloudy
11:42 PM 17.6 °F 10.7 °F 15.8 °F 93% 30.16 in 10.0 mi SSW 4.6 mph - N/A   Scattered Clouds
11:53 PM 18.0 °F 12.7 °F 16.0 °F 92% 30.34 in 10.0 mi South 3.5 mph - N/A   Partly Cloudy